EHI
53 50 58 59 48 48 59 64 60 58 56 45 28 19 17 20 27 40 61 78 84 86 85 81 71 52 30 13 8 7 5 3 2 1 0 1 2 2 1 1 1 1 0
56 50 52 57 52 51 57 59 58 57 55 46 32 24 22 24 29 42 59 74 82 83 83 82 75 60 38 20 11 9 9 8 5 2 0 0 1 1 2 2 2 1 1
47 39 36 42 47 48 50 53 54 55 52 46 39 33 32 32 33 39 50 63 74 78 81 82 78 68 51 34 24 20 20 17 10 4 2 1 1 0 1 2 3 2 1
27 22 18 22 29 30 32 37 44 48 46 41 39 39 41 42 37 36 42 53 64 71 75 80 79 73 61 49 42 39 38 32 20 11 6 4 3 1 1 2 2 1 0
11 9 9 10 11 12 12 16 26 34 32 29 28 31 41 45 41 38 40 48 56 59 63 72 78 76 66 57 54 55 53 48 36 24 16 12 8 5 2 1 1 1 0
3 3 3 3 3 2 3 5 10 15 17 16 13 17 28 36 41 43 43 47 52 51 53 63 74 75 67 55 53 58 59 56 49 41 33 26 20 12 5 1 1 1 0
1 1 1 0 0 0 1 1 2 3 6 6 6 7 13 21 30 40 48 53 55 54 52 58 68 74 70 55 46 49 53 54 55 55 50 44 35 23 12 4 2 2 1
4 3 2 1 0 0 0 0 0 0 1 1 1 2 3 7 12 23 38 51 58 62 60 57 63 72 74 66 49 39 38 44 53 60 63 59 48 32 18 9 4 3 2
10 8 5 3 1 0 0 0 0 0 0 0 0 0 1 1 2 7 16 28 44 60 64 59 58 66 74 77 66 44 32 32 41 56 66 66 55 35 19 11 8 6 4
20 19 14 9 5 2 1 1 1 0 0 0 0 0 1 1 1 1 2 8 22 41 54 56 55 61 70 78 75 59 41 30 30 43 55 59 51 33 18 13 16 17 14
38 36 31 25 17 8 3 2 1 0 0 0 0 0 1 1 1 0 0 2 8 20 35 49 56 61 65 68 66 57 41 28 22 26 34 39 38 30 21 19 26 33 32
60 56 51 47 37 21 10 5 2 1 0 0 0 0 0 1 1 0 0 0 2 7 21 39 54 60 60 55 48 36 25 18 13 13 15 18 21 23 22 23 30 38 39
75 74 69 63 50 33 18 8 4 2 1 1 1 1 2 3 2 1 0 0 0 2 11 27 43 54 56 47 33 19 11 7 5 4 5 7 9 12 14 16 22 25 27
79 82 79 68 53 36 22 12 6 4 3 2 1 2 3 3 2 1 0 0 0 0 4 13 29 43 48 39 23 12 6 2 1 0 1 2 3 3 4 6 8 8 9
72 75 76 67 53 38 24 14 8 5 3 2 1 1 2 2 1 0 0 0 0 0 1 5 15 26 32 27 17 9 4 0 0 0 0 0 0 0 0 1 1 0 1
54 57 61 59 51 42 29 17 9 6 3 2 0 0 1 1 1 0 0 0 0 0 0 2 6 11 16 16 11 6 2 0 0 0 0 0 0 0 0 0 0 0 0
29 32 39 41 39 36 29 18 9 4 3 3 1 0 0 0 0 0 0 0 0 0 0 1 3 6 8 8 5 2 1 0 0 0 0 0 0 0 0 0 0 0 0
8 10 16 22 23 22 20 15 7 3 3 3 1 0 0 0 0 0 0 0 0 0 0 0 3 6 6 4 2 0 0 0 0 0 0 0 0 0 0 0 0 0 0
1 1 3 7 11 11 8 7 5 2 2 3 2 1 0 0 0 0 0 0 0 0 0 0 3 5 4 1 0 0 0 0 0 0 0 0 0 0 0 0 0 0 0
0 0 0 2 4 4 2 2 2 2 2 3 2 1 0 0 0 0 0 0 0 0 0 0 1 2 1 0 0 0 0 0 0 0 0 0 0 0 0 0 0 0 0
0 0 0 0 1 1 0 0 1 1 2 2 1 0 0 0 0 0 0 0 0 0 0 0 0 0 0 0 0 0 0 0 0 0 0 0 0 0 0 0 0 0 0
0 0 0 0 0 0 0 0 0 0 1 1 0 0 0 0 0 0 0 0 0 0 0 0 0 0 0 0 0 0 0 0 0 0 0 0 0 0 0 0 0 0 0
0 0 0 0 0 0 0 0 0 0 0 0 0 0 0 0 0 0 0 0 0 0 0 0 0 0 0 0 0 0 0 0 0 0 0 0 0 0 0 0 0 0 0
0 0 0 0 0 0 0 0 0 0 0 0 0 0 0 0 0 0 0 0 0 0 0 0 0 0 0 0 0 0 0 0 0 0 0 0 0 0 0 0 0 0 0
0 0 0 0 0 0 0 0 0 0 0 0 0 0 0 0 0 0 0 0 0 0 0 0 0 0 0 0 0 0 0 0 0 0 0 0 0 0 0 0 0 0 0
0 0 0 0 0 0 0 0 0 0 0 0 0 0 0 0 0 0 0 0 0 0 0 0 0 0 0 0 0 0 0 0 0 0 0 0 0 0 0 0 0 0 0
Wind_Speed
2 2 2 2 4 3 2 3 4 4 4 5 6 7 8 9 9 7 4 13 17 18 18 19 18 18 18 18 18 18 18 18 18 18 19 19 20 19 19 19 18 17 17
1 2 3 3 4 4 4 3 5 4 4 4 6 7 8 8 7 5 4 9 17 20 20 20 19 20 20 20 20 19 19 19 18 18 19 20 20 20 20 20 19 19 18
0 1 3 3 3 3 4 4 5 5 5 6 7 8 7 7 8 7 7 5 8 17 20 21 21 21 21 21 21 20 19 19 19 19 19 20 20 20 20 20 20 20 19
1 1 3 3 2 3 3 4 5 4 4 4 5 6 6 6 9 9 8 7 6 8 15 22 22 21 22 22 22 21 20 19 19 19 20 20 21 21 21 21 21 20 20
2 2 2 3 3 3 3 5 3 2 4 4 5 6 7 7 8 10 10 10 9 9 8 14 23 23 23 24 23 22 21 20 20 20 20 20 21 21 21 22 21 21 21
2 3 3 3 4 4 3 3 5 5 4 5 8 7 5 7 7 8 11 10 10 12 11 10 11 16 23 22 22 22 22 22 21 21 21 21 21 21 21 22 22 22 21
2 1 3 3 4 3 4 5 4 6 5 4 5 6 6 8 8 8 9 9 10 11 10 10 9 8 10 21 22 21 22 23 21 21 20 20 20 20 21 22 22 22 22
0 3 2 3 4 4 5 5 4 4 5 5 4 6 6 6 6 8 7 8 10 8 9 11 9 9 8 8 13 22 22 23 22 21 20 19 19 19 20 21 22 22 22
1 2 2 3 3 4 4 4 4 5 5 5 4 4 4 5 6 6 7 6 6 7 7 6 8 9 11 8 9 17 23 22 21 21 19 18 17 17 18 20 21 22 22
4 3 3 4 3 3 4 5 3 4 5 6 5 4 6 7 6 6 7 7 7 6 6 7 6 6 8 7 7 11 18 18 17 17 16 16 15 16 17 19 21 22 22
5 6 5 4 3 4 5 4 4 5 4 5 5 6 7 6 7 7 9 7 6 5 5 5 4 3 3 3 3 5 11 13 14 13 12 12 12 13 15 18 20 21 22
4 6 6 4 4 4 4 4 5 6 5 6 5 6 6 6 6 6 7 8 7 6 5 3 2 1 1 3 5 8 7 7 7 6 7 7 9 10 12 15 17 19 21
4 3 2 2 3 4 4 5 5 6 6 6 6 6 6 6 7 7 7 8 8 6 5 3 2 1 2 4 6 11 9 7 5 4 4 3 3 5 6 8 11 14 15
5 5 3 3 4 5 6 5 5 6 5 5 7 7 6 7 6 7 7 7 7 6 4 3 2 2 3 5 7 9 8 10 9 8 7 6 4 2 2 2 3 4 6
7 7 6 5 5 6 6 6 5 6 5 5 6 7 6 6 6 6 6 6 7 6 5 1 1 2 3 5 6 7 8 11 12 12 11 11 10 8 7 5 4 3 3
7 8 8 7 6 6 6 6 6 6 5 5 5 6 6 5 5 6 6 6 7 6 4 1 1 1 3 6 8 9 10 15 14 14 13 13 13 13 12 12 12 11 10
7 7 8 8 8 8 7 6 7 6 6 5 5 5 6 7 5 5 5 5 5 5 4 1 1 3 5 8 8 8 8 8 9 14 15 15 15 15 15 15 15 15 16
8 8 8 8 9 9 7 7 7 6 5 5 4 5 6 6 6 5 4 4 3 3 5 6 3 3 5 7 8 9 8 8 8 14 16 16 16 16 16 16 16 16 17
9 9 8 9 9 9 9 8 7 6 5 3 2 3 5 5 5 4 4 2 1 2 4 6 5 4 4 6 8 9 10 8 8 11 14 15 16 16 16 15 16 16 16
9 9 9 9 9 10 10 9 8 6 4 2 1 1 2 3 3 3 2 1 1 4 6 7 7 5 5 6 7 7 7 5 6 8 9 11 14 16 15 15 15 15 14
12 9 9 8 8 9 10 9 7 7 5 4 3 2 2 3 4 3 2 2 3 5 6 7 7 6 6 6 5 5 7 6 6 6 6 6 6 7 8 11 13 14 12
9 8 8 8 8 10 9 8 7 6 5 6 5 4 4 3 4 6 8 9 7 6 7 6 6 6 6 6 5 6 7 6 5 4 5 5 5 6 5 5 8 10 11
8 7 7 8 8 8 8 8 10 6 6 7 7 6 5 5 4 4 7 10 11 11 8 6 7 6 6 5 6 6 5 4 5 5 6 7 6 6 5 6 8 9 10
7 7 7 8 7 8 7 7 9 8 6 8 8 7 6 6 5 5 6 8 8 7 7 6 7 6 6 5 5 6 6 6 5 4 6 7 6 5 6 4 6 8 9
7 8 9 8 7 5 5 6 7 6 6 8 9 9 8 7 7 8 8 8 9 8 11 13 12 10 10 8 5 4 4 5 5 4 4 5 6 5 4 3 4 6 7
7 9 9 8 7 5 3 5 7 5 6 7 8 9 10 10 10 9 8 8 8 7 8 9 8 7 6 7 6 3 2 4 5 4 3 4 5 5 4 3 4 4 3
Wind_Direction
239 290 308 312 299 293 271 240 259 259 248 249 252 252 250 246 246 240 199 187 190 196 203 206 209 216 220 222 222 222 220 219 217 215 215 217 217 217 216 216 216 216 215
212 270 280 274 273 280 291 288 279 274 268 261 259 260 265 270 268 263 241 199 197 201 205 209 211 217 222 224 223 221 219 217 216 214 215 217 218 217 217 217 216 216 215
132 287 278 268 261 268 267 262 264 257 256 254 253 254 254 258 265 265 264 250 214 211 211 212 213 215 219 223 223 221 218 216 214 213 214 215 216 217 217 217 216 216 215
41 329 289 290 322 297 273 258 249 252 255 259 258 257 255 252 254 253 250 245 240 232 217 217 217 216 217 221 222 221 218 215 214 214 214 215 215 216 216 217 216 216 215
1 322 315 306 311 295 289 299 320 309 292 280 271 253 240 240 243 248 242 238 234 233 228 214 215 215 216 220 222 222 218 215 214 215 215 216 215 215 215 217 217 216 215
15 22 311 334 344 312 310 329 328 312 291 273 277 279 258 244 239 241 243 240 235 235 232 226 211 217 218 219 220 221 220 217 214 215 216 217 216 215 215 216 216 216 216
32 335 295 336 311 306 334 320 311 309 301 291 288 286 271 252 240 232 231 234 234 233 233 226 212 204 208 219 221 221 221 221 216 215 216 217 217 216 215 215 216 216 216
102 288 17 330 320 333 301 288 307 303 300 305 303 301 294 283 265 254 230 226 231 229 230 230 218 209 207 197 211 219 223 223 220 217 216 216 217 216 216 216 215 216 216
204 249 281 281 303 295 301 335 303 294 304 308 294 288 295 293 314 302 300 275 246 229 226 227 220 214 215 208 193 207 218 221 220 219 217 216 216 216 217 218 217 216 216
214 213 226 246 265 284 295 289 328 336 306 295 295 285 276 289 296 299 299 297 287 264 245 234 231 221 217 210 198 187 204 214 215 219 219 218 217 218 219 220 220 219 217
216 207 209 214 238 258 271 290 295 283 283 284 292 297 296 294 277 273 285 292 296 290 272 247 230 221 214 203 176 168 188 201 206 211 216 220 223 224 223 224 224 223 221
234 213 203 195 219 250 272 280 279 279 274 276 278 279 279 279 281 276 278 285 287 291 301 309 288 233 134 103 98 106 135 160 173 184 204 220 227 229 229 229 228 228 226
281 259 227 189 231 258 266 265 267 269 272 272 271 269 268 268 270 270 272 277 280 284 291 306 325 9 86 99 99 102 105 119 131 151 162 184 213 225 230 232 231 230 231
310 326 326 275 254 258 267 269 274 273 272 274 279 277 271 266 264 264 263 267 275 273 270 275 357 30 67 86 98 98 97 99 102 99 96 94 95 107 141 170 189 206 219
314 322 317 297 279 268 265 269 270 273 278 278 283 285 280 273 265 260 259 252 251 260 260 258 0 30 75 89 100 97 97 93 93 91 88 85 81 78 80 88 101 116 131
324 317 306 298 286 274 265 262 268 269 276 283 282 289 295 290 279 268 260 254 241 237 243 209 137 97 87 96 92 96 98 94 89 89 87 86 82 77 74 75 77 78 79
313 308 303 295 286 276 266 260 262 269 276 283 294 304 306 303 297 286 273 260 246 222 210 179 120 106 101 105 101 101 99 93 91 90 89 86 84 80 74 72 72 73 74
299 298 299 295 285 278 273 265 261 266 273 287 302 313 315 314 313 306 293 276 250 205 170 155 134 112 108 112 111 106 100 97 95 94 92 89 85 81 77 74 72 71 71
283 287 289 290 287 282 277 268 257 252 256 271 300 315 316 321 321 320 312 298 267 159 144 137 130 118 108 110 109 104 104 103 100 99 92 87 85 83 80 78 76 74 72
273 274 276 280 283 281 274 267 256 244 232 215 208 290 325 337 339 335 335 354 114 120 122 127 127 122 115 110 112 117 114 112 112 107 95 95 91 84 80 81 80 78 75
264 265 271 279 286 282 271 266 250 238 209 184 169 145 86 58 38 25 51 75 108 116 121 124 126 125 125 129 126 126 124 122 114 124 124 117 105 93 83 79 81 82 80
262 265 270 279 287 291 302 293 261 238 195 177 167 151 136 107 83 71 71 74 86 113 122 123 124 131 132 134 135 140 137 137 131 151 133 118 106 93 87 85 91 91 86
282 281 283 284 284 291 281 264 253 236 193 177 166 163 155 134 128 108 91 81 73 73 91 116 123 127 128 138 139 134 137 133 123 146 129 114 108 99 99 106 113 105 96
281 282 277 276 279 292 279 253 250 244 201 174 165 163 151 146 145 136 114 97 84 74 89 96 100 103 104 107 113 124 124 111 106 126 131 122 126 119 117 120 137 123 111
273 272 271 265 268 282 281 253 243 240 201 174 163 156 151 147 145 135 120 110 102 92 83 91 96 99 100 101 110 122 131 128 129 139 140 124 135 131 130 135 152 145 127
266 268 267 262 258 260 272 241 231 243 205 172 156 151 152 144 142 136 129 123 115 113 112 105 99 104 105 96 88 102 140 140 130 121 132 130 148 145 134 145 152 158 140